ONEWEB-0320 (49190 NORAD) Tracking and Keplerian Element Data

This shows tracking and keplerian element data for the satellite.

Feedback or suggestion? Click here.




ElementValue
Catalog49190
NameONEWEB-0320
Epoch Orbit356
Epoch Day300.58334491
Epoch Year2021
RAAN314.1307
Inclination87.5863
Eccentricity0.0019673
Argument of Perigee145.574
Mean Anonmoly285.9235
Mean Motion14.51861795
Decay Rate-0.0144894
L11 49190U 21083E 21300.58334491 -.01448940 00000-0 -38549+0 0 9990
L22 49190 87.5863 314.1307 0019673 145.5740 285.9235 14.51861795 3568

Live tracking and technical data element details for ONEWEB-0320 (NORAD 49190). ONEWEB-0320 can be tracked NOW for your location showing map with azimuth and elevation plus other details from your city location.

Track the satellite on the map from your city or location and see movement details for azimuth, elevation, latitude, longitude, range, height, and movement on the map or in text.







IsCatalogInMostPopularTable: catalog: 49190, numindb: 10
Update: records affected: 1



GetName: 49190 ONEWEB-0320

Hit Count: updated at: Thu, 28 Oct 2021 12:05:16 GMT